Waarnemingen

Advertentie
Mijn weer
Sveg A, Zweden (2327): temperatuur & dauwpunt: 11.10.2018 23:00:00 - 17.10.2018 23:00:00 (CEST)Sveg A, Zweden (2327): windsnelheid & windstoten: 11.10.2018 23:00:00 - 17.10.2018 23:00:00 (CEST)Sveg A, Zweden (2327): windrichting: 11.10.2018 23:00:00 - 17.10.2018 23:00:00 (CEST)Sveg A, Zweden (2327): luchtdruk: 11.10.2018 23:00:00 - 17.10.2018 23:00:00 (CEST)Sveg A, Zweden (2327): zicht: 11.10.2018 23:00:00 - 17.10.2018 23:00:00 (CEST)Sveg A, Zweden (2327): neerslag: 11.10.2018 23:00:00 - 17.10.2018 23:00:00 (CEST)
Datum & Tijd tt [°C] td [°C] ff [km/u] ff [kn] fx [km/u] fx [kn] dd ppp [hPa] vv [km] rr [mm]
17.10.2018 23:00:00 - - - - - - - - - -
17.10.2018 22:00:00 5,1 4,4 7 4 16 9 NNO 1012,4 50 0,0
17.10.2018 21:00:00 6,7 5,6 3 1 20 11 N 1012,2 50 0,0
17.10.2018 20:00:00 9,2 6,6 5 3 19 10 N 1011,5 48 0,0
17.10.2018 19:00:00 10,1 7,0 11 6 33 18 WZW 1011,3 50 0,0
17.10.2018 18:00:00 10,2 7,1 15 8 33 18 WZW 1010,7 50 0,0
17.10.2018 17:00:00 11,3 7,2 17 9 36 20 WZW 1010,6 50 0,0
17.10.2018 16:00:00 11,3 7,2 20 11 40 21 ZW 1010,7 50 0,0
17.10.2018 15:00:00 12,2 7,3 11 6 37 20 ZW 1010,4 49 0,0
17.10.2018 14:00:00 10,7 7,8 17 9 33 18 ZW 1010,9 50 0,0
17.10.2018 13:00:00 10,1 7,9 13 7 26 14 WZW 1011,5 50 0,0
17.10.2018 12:00:00 9,8 7,6 17 9 31 17 WZW 1011,9 41 0,0
17.10.2018 11:00:00 8,1 7,3 4 2 9 5 ONO 1012,0 50 0,0
17.10.2018 10:00:00 6,7 6,4 1 1 6 4 N 1012,5 50 0,0
17.10.2018 09:00:00 6,0 5,7 3 1 8 4 OZO 1012,5 50 0,0
17.10.2018 08:00:00 5,8 5,7 7 4 15 8 NNO 1012,6 50 0,0
17.10.2018 07:00:00 6,2 5,8 7 4 12 6 ZO 1012,9 50 0,0
17.10.2018 06:00:00 5,0 5,0 9 5 14 8 ONO 1013,4 50 0,0
17.10.2018 05:00:00 5,1 4,8 5 3 9 5 O 1014,0 50 0,0
17.10.2018 04:00:00 4,9 4,8 7 4 15 8 O 1014,4 50 0,0
17.10.2018 03:00:00 4,7 4,6 13 7 17 9 O 1014,9 50 0,0
17.10.2018 02:00:00 5,0 4,6 7 4 14 8 O 1015,6 36 0,0
17.10.2018 01:00:00 4,8 4,5 7 4 11 6 ONO 1016,1 44 0,0
17.10.2018 00:00:00 4,5 4,1 2 1 14 8 WZW 1016,8 50 0,0
16.10.2018 23:00:00 4,0 3,7 8 5 19 10 OZO 1017,3 43 0,0
16.10.2018 22:00:00 3,3 3,0 8 5 18 10 O 1018,3 49 0,0
16.10.2018 21:00:00 3,3 3,3 12 7 21 11 ZO 1018,8 45 0,0
16.10.2018 20:00:00 1,2 1,2 3 2 13 7 NW 1019,4 0,5 0,0
16.10.2018 19:00:00 3,1 3,1 10 5 13 7 OZO 1019,2 50 0,0
16.10.2018 18:00:00 3,1 3,0 4 2 7 4 ZO 1019,7 4,3 0,0
16.10.2018 17:00:00 5,4 4,0 6 3 11 6 O 1019,2 50 0,0
16.10.2018 16:00:00 6,3 4,6 7 4 10 5 ONO 1019,1 50 0,0
16.10.2018 15:00:00 6,1 4,4 4 2 8 4 NO 1019,6 50 0,0
16.10.2018 14:00:00 6,3 5,7 3 2 9 5 NW 1019,9 50 0,0
16.10.2018 13:00:00 4,1 4,1 6 4 10 6 ZW 1020,5 47 0,0
16.10.2018 12:00:00 2,5 2,5 3 1 11 6 N 1020,9 10 0,0
16.10.2018 11:00:00 2,4 2,4 9 5 14 7 W 1021,3 4,7 0,0
16.10.2018 10:00:00 0,7 0,7 6 3 9 5 NW 1020,9 0,4 0,1
16.10.2018 09:00:00 -0,1 -0,1 7 4 10 5 NW 1020,6 0,2 0,0
16.10.2018 08:00:00 0,7 0,7 6 4 10 5 NW 1019,6 0,2 0,0
16.10.2018 07:00:00 0,1 0,1 8 4 9 5 WNW 1019,0 0,1 0,0
16.10.2018 06:00:00 -0,8 -0,8 3 2 5 3 WNW 1018,6 0,2 0,0
16.10.2018 05:00:00 -0,7 -0,7 1 1 6 4 ZZO 1017,9 0,2 0,0
16.10.2018 04:00:00 0,9 0,9 4 2 9 5 W 1017,3 3,2 0,0
16.10.2018 03:00:00 1,4 1,4 11 6 14 8 WNW 1016,4 25 0,0
16.10.2018 02:00:00 3,0 3,0 7 4 9 5 W 1016,0 4,2 0,0
16.10.2018 01:00:00 4,1 3,8 6 4 14 8 WNW 1015,1 50 0,0
16.10.2018 00:00:00 4,8 4,5 9 5 11 6 WNW 1014,7 50 0,0
15.10.2018 23:00:00 5,0 4,9 5 3 11 6 W 1014,2 50 0,0
15.10.2018 22:00:00 5,0 4,9 8 4 10 5 WNW 1013,6 27 0,1
15.10.2018 21:00:00 5,3 5,2 5 3 9 5 ZW 1013,3 50 0,0
15.10.2018 20:00:00 5,3 5,0 6 4 12 7 WNW 1013,1 50 0,0
15.10.2018 19:00:00 5,4 5,4 9 5 11 6 WNW 1013,1 4,0 0,1
15.10.2018 18:00:00 5,5 5,4 6 4 9 5 WNW 1012,9 3,1 0,3
15.10.2018 17:00:00 5,8 5,7 4 2 8 4 NNW 1012,7 2,4 0,2
15.10.2018 16:00:00 5,9 5,8 6 3 14 8 O 1012,2 3,2 0,2
15.10.2018 15:00:00 6,1 5,8 8 5 13 7 O 1012,5 2,8 0,2
15.10.2018 14:00:00 5,9 5,8 4 2 9 5 NW 1012,8 2,7 0,3
15.10.2018 13:00:00 5,8 5,4 5 3 10 6 N 1013,0 3,9 0,2
15.10.2018 12:00:00 5,8 5,4 5 3 9 5 N 1013,1 3,8 0,5
15.10.2018 11:00:00 6,1 5,5 2 1 12 7 NO 1012,6 4,9 0,6
15.10.2018 10:00:00 6,2 5,6 7 4 20 11 O 1012,4 6 0,8
15.10.2018 09:00:00 6,7 5,6 10 5 18 10 NO 1012,0 9 0,0
15.10.2018 08:00:00 7,5 6,3 6 3 17 9 NO 1010,8 12 0,0
15.10.2018 07:00:00 8,9 6,7 8 5 19 10 ZW 1009,7 12 0,0
15.10.2018 06:00:00 10,7 8,1 4 2 9 5 NNO 1008,4 17 0,0
15.10.2018 05:00:00 10,9 7,8 5 3 11 6 Z 1007,6 23 0,0
15.10.2018 04:00:00 10,8 7,1 2 1 14 8 WZW 1007,1 27 0,0
15.10.2018 03:00:00 11,1 7,4 10 5 19 11 ZZO 1006,2 27 0,0
15.10.2018 02:00:00 12,1 7,2 10 6 21 12 Z 1006,2 30 0,0
15.10.2018 01:00:00 11,6 7,3 12 7 18 10 OZO 1006,3 32 0,0
15.10.2018 00:00:00 11,9 7,4 12 6 17 9 OZO 1006,6 30 0,0
14.10.2018 23:00:00 12,8 7,5 6 3 14 7 ZZO 1007,1 32 0,0
14.10.2018 22:00:00 13,3 7,3 3 2 14 8 ZO 1007,3 32 0,0
14.10.2018 21:00:00 13,1 7,1 5 3 15 8 ZZO 1007,5 38 0,0
14.10.2018 20:00:00 14,3 7,1 6 4 25 13 ZZO 1007,5 43 0,0
14.10.2018 19:00:00 14,9 7,0 4 2 18 10 ZZW 1007,5 45 0,0
14.10.2018 18:00:00 16,5 7,2 9 5 23 12 ZZO 1007,1 46 0,0
14.10.2018 17:00:00 18,0 7,7 15 8 28 15 ZZO 1007,4 50 0,0
14.10.2018 16:00:00 19,6 9,2 14 8 32 17 Z 1007,5 45 0,0
14.10.2018 15:00:00 19,8 9,1 19 10 37 20 Z 1007,9 39 0,0
14.10.2018 14:00:00 20,0 9,3 16 9 39 21 ZZW 1008,7 49 0,0
14.10.2018 13:00:00 19,5 10,2 17 9 41 22 ZZW 1009,1 46 0,0
14.10.2018 12:00:00 18,0 10,6 18 10 32 18 Z 1009,7 43 0,0
14.10.2018 11:00:00 17,6 11,6 10 6 23 12 Z 1010,2 30 0,0
14.10.2018 10:00:00 15,9 11,9 11 6 18 10 ZZO 1010,7 30 0,0
14.10.2018 09:00:00 15,2 12,1 13 7 21 11 O 1010,8 32 0,0
14.10.2018 08:00:00 14,7 12,2 10 6 17 9 ZO 1010,4 38 0,0
14.10.2018 07:00:00 15,3 12,4 6 3 18 10 ZZO 1010,5 46 0,0
14.10.2018 06:00:00 15,3 12,2 7 4 17 9 ZO 1011,1 47 0,0
14.10.2018 05:00:00 15,7 11,9 5 3 20 11 ZO 1011,5 50 0,0
14.10.2018 04:00:00 14,1 11,1 8 5 25 13 Z 1011,9 50 0,0
14.10.2018 03:00:00 14,1 11,1 6 3 16 8 O 1011,6 50 0,0
14.10.2018 02:00:00 14,8 11,9 9 5 29 16 O 1011,5 46 0,0
14.10.2018 01:00:00 16,0 12,0 5 3 29 16 ZO 1011,6 50 0,0
14.10.2018 00:00:00 17,1 12,4 11 6 26 14 ZZW 1011,4 50 0,0
13.10.2018 23:00:00 17,4 12,7 9 5 31 17 ZZW 1011,3 50 0,0
13.10.2018 22:00:00 17,5 12,8 13 7 43 23 ZZW 1011,2 50 0,0
13.10.2018 21:00:00 17,3 12,4 13 7 34 18 ZZW 1011,3 50 0,0
13.10.2018 20:00:00 17,2 12,1 16 9 35 19 ZZW 1011,5 50 0,0
13.10.2018 19:00:00 16,8 12,3 13 7 39 21 Z 1011,8 50 0,0
13.10.2018 18:00:00 17,0 12,5 16 8 35 19 Z 1011,7 50 0,0
13.10.2018 17:00:00 17,0 12,5 17 9 36 20 Z 1011,7 49 0,0
13.10.2018 16:00:00 16,8 12,5 17 9 34 19 Z 1011,7 50 0,0
13.10.2018 15:00:00 16,8 12,3 15 8 33 18 ZZW 1011,5 50 0,0
13.10.2018 14:00:00 17,0 12,6 16 9 37 20 Z 1011,7 49 0,0
13.10.2018 13:00:00 15,9 12,3 15 8 32 17 Z 1012,1 37 0,0
13.10.2018 12:00:00 15,6 12,0 18 10 36 20 ZZW 1012,0 30 0,0
13.10.2018 11:00:00 15,2 11,2 17 9 36 20 Z 1012,2 32 0,0
13.10.2018 10:00:00 14,8 10,8 18 10 37 20 Z 1011,7 26 0,0
13.10.2018 09:00:00 14,0 10,4 21 11 44 24 Z 1012,2 26 0,0
13.10.2018 08:00:00 10,7 8,1 8 4 23 12 ZO 1013,2 29 0,0
13.10.2018 07:00:00 11,0 7,9 8 4 22 12 ZZO 1013,4 46 0,0
13.10.2018 06:00:00 11,6 7,7 11 6 26 14 ZZO 1013,4 45 0,0
13.10.2018 05:00:00 12,0 7,7 10 5 23 12 Z 1013,9 48 0,0
13.10.2018 04:00:00 11,8 7,1 9 5 36 20 Z 1014,4 50 0,0
13.10.2018 03:00:00 12,4 7,5 11 6 31 17 ZZW 1014,8 47 0,0
13.10.2018 02:00:00 12,1 8,8 13 7 29 16 Z 1014,9 27 0,0
13.10.2018 01:00:00 11,7 9,3 10 5 29 16 ZZO 1014,8 13 0,0
13.10.2018 00:00:00 9,4 8,2 9 5 12 7 O 1015,7 12 0,0
12.10.2018 23:00:00 9,1 7,5 9 5 19 10 ZO 1016,8 14 0,0
12.10.2018 22:00:00 8,7 7,3 8 4 13 7 ZZO 1017,5 16 0,0
12.10.2018 21:00:00 7,1 7,1 6 3 14 8 Z 1017,9 12 0,0
12.10.2018 20:00:00 2,5 2,4 3 2 6 4 O 1019,1 0,2 0,0
12.10.2018 19:00:00 4,5 4,2 2 1 7 4 WNW 1018,5 6 0,0
12.10.2018 18:00:00 6,4 5,2 3 2 8 5 Z 1017,9 14 0,0
12.10.2018 17:00:00 10,5 7,0 4 2 11 6 NW 1017,5 34 0,0
12.10.2018 16:00:00 11,3 7,0 5 3 13 7 WNW 1017,6 32 0,0
12.10.2018 15:00:00 11,2 7,1 9 5 16 9 WNW 1018,4 34 0,0
12.10.2018 14:00:00 9,2 6,8 6 3 11 6 Z 1019,2 26 0,0
12.10.2018 13:00:00 8,0 6,3 4 2 12 6 ZW 1020,0 16 0,0
12.10.2018 12:00:00 7,2 6,1 8 4 15 8 WZW 1020,4 20 0,0
12.10.2018 11:00:00 6,6 6,6 7 4 14 8 W 1021,0 13 0,0
12.10.2018 10:00:00 5,6 5,6 6 3 10 6 WZW 1021,2 11 0,0
12.10.2018 09:00:00 2,0 2,0 3 2 5 3 OZO 1021,9 6 0,0
12.10.2018 08:00:00 0,7 0,7 3 2 7 4 NW 1022,1 0,3 0,0
12.10.2018 07:00:00 -0,3 -0,3 4 2 6 4 WNW 1022,5 0,1 0,0
12.10.2018 06:00:00 -1,5 -1,5 3 2 5 3 ZW 1022,3 0,2 0,0
12.10.2018 05:00:00 -3,2 -3,3 4 2 5 3 NNW 1022,7 0,2 0,0
12.10.2018 04:00:00 -2,8 -2,9 3 2 5 3 N 1023,1 0,4 0,0
12.10.2018 03:00:00 -2,0 -2,0 1 1 5 3 ZO 1023,4 0,4 0,0
12.10.2018 02:00:00 -1,4 -1,5 3 2 6 4 O 1023,9 0,2 0,0
12.10.2018 01:00:00 -1,7 -2,0 3 2 7 4 NW 1023,9 43 0,0
12.10.2018 00:00:00 0,0 -0,1 3 2 10 5 NNO 1023,8 8 0,0
11.10.2018 23:00:00 2,9 2,2 8 4 11 6 O 1023,2 32 0,0

tt = temperatuur
td = dauwpunt
ff = windsnelheid
fx = windstoten
dd = windrichting
ppp = luchtdruk
vv = zicht
rr = neerslag

Weerstations in de omgeving